Tracking 22124 objects as of 25-Jan-2021
HD Live streaming from Space Station
objects crossing your sky now

STARLINK-1607

Track STARLINK-1607 now!
10-day predictions
STARLINK-1607 is classified as:


NORAD ID: 46145
Int'l Code: 2020-057AE
Perigee: 553.1 km
Apogee: 555.5 km
Inclination: 53.0 °
Period: 95.6 minutes
Semi major axis: 6925 km
RCS: Unknown
Launch date: August 18, 2020
Source: United States (US)
Launch site: AIR FORCE EASTERN TEST RANGE (AFETR)
aabbcc
Your satellite tracking list
Your tracking list is empty




NASA's NSSDC Master Catalog

Two Line Element Set (TLE):
1 46145U 20057AE  21025.20481749  .00002277  00000-0  17159-3 0  9993
2 46145  53.0435  49.0169 0001769 126.0807 234.0345 15.06422168 25247
Source of the keplerian elements: AFSPC